COSMOS 252 DEB *, 3686

Orbit data source: Space-Track

COSMOS 252 DEB *, 3686 is space debris in LEO originally from a launch on Fri, 01 Nov 1968 UTC launched from the Tyuratam Missile And Space Complex (TTMTR). Debris objects in space refer to the collection of defunct objects orbiting the Earth. Examples of debris include non-operational satellites, rocket bodies, and fragments generated from explosions, collisions, or faulty payload assembly.

Loading next visibility...
Identifier
3686, 1968-097AD
Orbit
LEO
Country
Flag of CISCIS
Related business
Manufacturer
Unknown
Mission
Spacecraft
Bus & Motor
Unknown
Mass
Unknown
Launch date (UTC)
1968-11-01 (57 years ago)
Launch vehicle
Unknown
Launch site
Tyuratam Missile And Space Complex (TTMTR)
Object type
Payload
Rocket body
Debris
Shape & HBR
Unknown shape, 0.1 m
Radar Cross Section
Small (<0.1 m²)

Expand to show TLE details & history
Last TLE update: 1 day ago

TLE from 1 day ago
0 COSMOS 252 DEB *
1  3686U 68097AD  25306.43155279  .00001629  00000-0  14968-2 0  9993
2  3686  62.2593 323.1228 0649816 120.8343 245.8255 13.16785893666895
Epoch: 2025-11-02T10:21Z
TLE epoch observation values (Epoch: 2025-11-02T10:21:26.161Z)
Latitude
0.00003°
Longitude
125.81644°
Altitude
1,425.83 km
Speed
7.041 km/s
True Right ascension
21h 32m 29s
True Declination
0° 00' 00"
Sunlit
Object was in daylight at epoch
Visualization orbit readout
Latitude
Unknown
Longitude
Unknown
Altitude
Unknown
Speed
Unknown
Apparent Right ascension
Unknown
Apparent Declination
Unknown
Sunlit
N/A
Visualization observer readout
Local Sidereal Time
07:08:59
Azimuth
Unknown
Elevation
Unknown
Doppler factor
Unknown
Orbital elements
Apogee altitude
1,688.182 km
Perigee altitude
703.823 km
Semi-major axis
7,574.139 km
Eccentricity
0.06498
Inclination
62.2593°
RAAN
323.1228°
Arg. of periapsis
120.8343°
True anomaly
239.26545°
Mean anomaly
245.8255°
Eccentric anomaly
242.52234°
Mean motion
3.29263 °/min
Orbital period
109.34 mins
BSTAR
0.0014968
Loading maneuver chart data...
Computing Atmospheric mass density...

Documentation

Showing up to 5 results
|